Gastonia, NC

9:25 AM EST on January 29, 2020 (GMT -0500)
Gastonia Municipal

Weather History for KAKH - November, 2019

Change the Weather History Date:

Monday, November 18, 2019

  Actual Average (KCLT) Record (KCLT)
Temperature  
Mean Temperature 47 °F -  
Max Temperature 50 °F 62 °F 78 °F (1942)
Min Temperature 44 °F 39 °F 20 °F (2014)
Degree Days  
Heating Degree Days 18    
Moisture  
Dew Point 43 °F    
Average Humidity 84    
Maximum Humidity 93    
Minimum Humidity 71    
Precipitation  
Precipitation 0.25 in - - ()
Sea Level Pressure  
Sea Level Pressure 29.82 in    
Wind  
Wind Speed 2 mph ()    
Max Wind Speed 6 mph    
Max Gust Speed -    
Visibility 5.0 miles    
Events Fog , Rain    
Averages and records for this station are not official NWS values.
T = Trace of Precipitation, MM = Missing Value Source: Averaged Metar Reports

Daily Weather History Graph

Daily Weather History Graph

Search for Another Location

Airport or City:

Astronomy

Nov. 18, 2019 Rise Set
Actual Time 7:02 AM EST 5:16 PM EST
Civil Twilight 6:35 AM EST 5:44 PM EST
Nautical Twilight 6:04 AM EST 6:14 PM EST
Astronomical Twilight 5:34 AM EST 6:45 PM EST
Moon 11:00 PM EST (11/18) 12:31 PM EST (11/18)
Length of Visible Light 11h 09m
Length of Day
10h 14m
Waning Gibbous, 63% of the Moon is Illuminated
Nov 18
Waning Gibbous
Nov 19
Last Quarter
Nov 26
New
Dec 4
First Quarter
Dec 12
Full

Hourly Weather History & Observations

Time (EST) Temp. Windchill Dew Point Humidity Pressure Visibility Wind Dir Wind Speed Gust Speed Precip Events Conditions
12:54 AM 46.9 °F - 37.9 °F 71% 29.91 in 10.0 mi North 5.8 mph - N/A   Mostly Cloudy
1:54 AM 46.9 °F - 37.9 °F 71% 29.88 in 10.0 mi North 5.8 mph - N/A   Overcast
2:54 AM 46.0 °F 43.1 °F 39.0 °F 76% 29.86 in 10.0 mi NNE 5.8 mph - N/A   Overcast
3:54 AM 46.9 °F - 39.0 °F 74% 29.86 in 10.0 mi NNE 3.5 mph - N/A   Overcast
4:54 AM 46.0 °F 44.8 °F 39.9 °F 79% 29.85 in 10.0 mi NE 3.5 mph - 0.00 in   Overcast
5:54 AM 46.0 °F 44.8 °F 39.9 °F 79% 29.85 in 7.0 mi ENE 3.5 mph - 0.01 in Rain Light Rain
6:54 AM 46.0 °F 44.8 °F 41.0 °F 83% 29.86 in 2.0 mi NNW 3.5 mph - 0.01 in Rain Light Rain
7:03 AM 46.0 °F 44.8 °F 41.0 °F 83% 29.86 in 3.0 mi North 3.5 mph - 0.00 in Rain Light Rain
7:15 AM 46.0 °F - 41.0 °F 83% 29.86 in 4.0 mi Calm Calm - 0.00 in Rain Light Rain
7:26 AM 46.0 °F 44.8 °F 41.0 °F 83% 29.86 in 1.8 mi North 3.5 mph - 0.01 in Rain Light Rain
7:42 AM 46.0 °F - 41.0 °F 83% 29.86 in 1.0 mi Calm Calm - 0.02 in Rain Light Rain
7:54 AM 46.0 °F - 42.1 °F 86% 29.86 in 1.5 mi Calm Calm - 0.03 in Rain Rain
8:02 AM 46.0 °F 44.8 °F 42.1 °F 86% 29.86 in 1.5 mi NE 3.5 mph - 0.01 in Rain Light Rain
8:16 AM 46.0 °F - 42.1 °F 86% 29.86 in 2.0 mi Calm Calm - 0.02 in Rain Light Rain
8:41 AM 46.0 °F - 42.1 °F 86% 29.87 in 1.5 mi Calm Calm - 0.04 in Rain Rain
8:52 AM 46.4 °F - 42.8 °F 87% 29.87 in 2.0 mi Calm Calm - 0.07 in Rain Rain
8:54 AM 46.0 °F - 42.1 °F 86% 29.88 in 2.0 mi Calm Calm - 0.07 in Rain Rain
9:08 AM 46.0 °F - 42.1 °F 86% 29.87 in 3.0 mi Calm Calm - 0.01 in Rain Light Rain
9:12 AM 46.0 °F - 42.1 °F 86% 29.87 in 1.8 mi Calm Calm - 0.02 in Rain Rain
9:54 AM 46.0 °F - 43.0 °F 89% 29.88 in 1.5 mi Calm Calm - 0.07 in Rain Rain
10:11 AM 46.9 °F - 43.0 °F 86% 29.87 in 2.0 mi Calm Calm - 0.03 in Rain Light Rain
10:48 AM 48.2 °F - 42.8 °F 82% 29.85 in 3.0 mi Calm Calm - 0.05 in Rain Light Rain
10:54 AM 48.0 °F - 43.0 °F 83% 29.86 in 4.0 mi Calm Calm - 0.05 in Rain Light Rain
11:14 AM 46.9 °F - 43.0 °F 86% 29.84 in 2.5 mi Calm Calm - 0.00 in Rain Light Rain
11:16 AM 46.9 °F - 43.0 °F 86% 29.84 in 3.0 mi Calm Calm - 0.00 in Rain Light Rain
11:54 AM 48.0 °F - 43.0 °F 83% 29.83 in 10.0 mi WSW 3.5 mph - 0.01 in   Overcast
12:54 PM 50.0 °F - 44.1 °F 80% 29.79 in 10.0 mi WSW 4.6 mph - N/A   Overcast
1:02 PM 50.0 °F - 44.1 °F 80% 29.78 in 10.0 mi SW 3.5 mph - N/A   Overcast
1:33 PM 50.0 °F - 44.1 °F 80% 29.77 in 10.0 mi SW 4.6 mph - N/A   Overcast
1:49 PM 50.0 °F - 44.6 °F 82% 29.77 in 10.0 mi WSW 3.5 mph - N/A   Overcast
1:54 PM 50.0 °F - 44.1 °F 80% 29.77 in 10.0 mi Calm Calm - N/A   Overcast
2:54 PM 50.0 °F - 45.0 °F 83% 29.77 in 5.0 mi Calm Calm - N/A   Haze
3:21 PM 48.9 °F - 45.0 °F 86% 29.76 in 8.0 mi SSW 4.6 mph - N/A   Overcast
3:50 PM 50.0 °F - 44.6 °F 82% 29.76 in 10.0 mi Variable 3.5 mph - N/A   Overcast
3:54 PM 50.0 °F - 45.0 °F 83% 29.76 in 10.0 mi SSW 3.5 mph - N/A   Overcast
4:02 PM 50.0 °F - 45.0 °F 83% 29.76 in 10.0 mi SW 3.5 mph - N/A   Overcast
4:29 PM 50.0 °F - 45.0 °F 83% 29.75 in 10.0 mi Calm Calm - N/A   Mostly Cloudy
4:40 PM 50.0 °F - 44.1 °F 80% 29.75 in 10.0 mi Calm Calm - N/A   Mostly Cloudy
4:54 PM 48.9 °F - 44.1 °F 83% 29.75 in 9.0 mi Calm Calm - N/A   Mostly Cloudy
5:23 PM 48.9 °F - 45.0 °F 86% 29.76 in 10.0 mi Calm Calm - N/A   Overcast
5:54 PM 48.9 °F - 45.0 °F 86% 29.78 in 10.0 mi Calm Calm - N/A   Overcast
6:05 PM 48.9 °F - 45.0 °F 86% 29.78 in 10.0 mi SSW 3.5 mph - N/A   Overcast
6:54 PM 48.9 °F - 45.0 °F 86% 29.79 in 6.0 mi Calm Calm - N/A   Overcast
7:54 PM 48.9 °F - 45.0 °F 86% 29.79 in 7.0 mi Calm Calm - N/A   Overcast
8:25 PM 48.0 °F - 44.1 °F 86% 29.79 in 2.0 mi Calm Calm - N/A   Scattered Clouds
8:29 PM 46.9 °F - 43.0 °F 86% 29.79 in 0.8 mi Calm Calm - N/A   Scattered Clouds
8:44 PM 46.0 °F - 42.1 °F 86% 29.79 in 0.8 mi Calm Calm - N/A   Mist
8:54 PM 45.0 °F - 41.0 °F 86% 29.80 in 0.2 mi Calm Calm - N/A Fog Fog
9:13 PM 45.0 °F - 41.0 °F 86% 29.79 in 1.0 mi Calm Calm - N/A   Mist
9:23 PM 44.1 °F - 39.9 °F 85% 29.79 in 0.5 mi Calm Calm - N/A Fog Fog
9:54 PM 44.1 °F - 41.0 °F 89% 29.81 in 0.5 mi Calm Calm - N/A Fog Fog
10:05 PM 44.1 °F 42.5 °F 39.9 °F 85% 29.80 in 1.5 mi WSW 3.5 mph - N/A   Overcast
10:18 PM 44.1 °F - 42.1 °F 93% 29.80 in 0.5 mi Calm Calm - N/A Fog Fog
10:45 PM 45.0 °F - 42.1 °F 90% 29.80 in 0.5 mi Calm Calm - N/A Fog Fog
10:54 PM 45.0 °F - 42.1 °F 90% 29.81 in 0.8 mi Calm Calm - N/A   Overcast
11:02 PM 46.0 °F - 42.1 °F 86% 29.81 in 2.0 mi Calm Calm - N/A   Overcast
11:12 PM 46.0 °F - 43.0 °F 89% 29.81 in 3.0 mi Calm Calm - N/A   Overcast
11:44 PM 46.0 °F - 43.0 °F 89% 29.80 in 2.5 mi Calm Calm - N/A   Overcast
11:54 PM 46.0 °F - 42.1 °F 86% 29.80 in 1.2 mi Calm Calm - N/A   Overcast